Weather in Victoria de Las Tunas

Cuba     20°57′36″N   76°57′24″W
temp.,
°C
wind,
m/s
gust,
m/s
humid.,
%
clouds,
%
prec.,
mm/h
press.,
hPa
HPBL,
m
4 march, thu
thu401:00+22w22821 0.3 101627
04:00+21wsw22870 0.0 101528
07:00+21wsw22900 0.0 101573
10:00+29wsw34482 0.0 10161178
13:00+33wsw44271 0.0 10142477
16:00+32sw76300 0.0 10121677
19:00+25sw510576 0.0 1013357
22:00+22w35838 0.3 1015169
5 march, fri
fri501:00+21nw249214 0.5 1013106
04:00+20nw24972 0.0 1013105
07:00+20nnw25927 0.1 1014215
10:00+28nnw11540 0.0 10151154
13:00+30nw224644 0.1 10131552
16:00+30wnw334574 0.3 10111654
19:00+23ne357080 0.6 1013234
22:00+21ene358427 0.3 1014150
6 march, sat
sat601:00+21ne229014 0.3 101349
04:00+20e12930 0.0 101223
07:00+21ese11880 0.0 101469
10:00+28s34510 0.0 10151107
13:00+33sw65322 0.0 10132299
16:00+31sw763836 0.0 10111667
19:00+25wsw595756 0.0 1013394
22:00+22w387826 0.0 1014242
7 march, sun
sun701:00+20wnw129217 0.0 101423
04:00+20wnw239529 0.0 101473
07:00+20wnw248614 0.0 1016132
10:00+28nnw22460 0.0 10181038
13:00+32nw33340 0.0 10152128
16:00+30n764659 0.0 10141399
19:00+23n6117434 0.0 1017596
22:00+23nne5108063 0.0 1019786
8 march, mon
mon801:00+22ne5118248 0.1 1018703
04:00+21ne612801 0.1 1018735
07:00+22ne612751 0.1 10201012
10:00+26ne1012545 0.1 10231390
13:00+27ne10124943 0.2 10211549
16:00+23ne91262100 0.0 10201194
19:00+21ne7126885 0.0 10211081
22:00+21ene6127116 0.0 1022936